Flag for U.S.A. Weather past 2 weeks in Santa Fe, New Mexico, U.S.A.

Now
55 °F

Sunny.


Feels Like: 52 °F
Forecast: 25 / 51 °F
Wind: 9 mph from Southwest

Location: Santa Fe County Municipal Airport

Current Time: Mar 6, 2015 at 3:31:23 PM

Latest Report: Mar 6, 2015 at 2:53 PM


Visibility: 10 mi

Pressure: 30.20 "Hg

Humidity: 15%

Dew point: 8 °F

Location of Santa FeLocation

Historic Weather in Santa Fe — Graph

°F

Santa Fe temperature yesterday

Maximum temperature yesterday: 47 °F (at 4:53 PM)
Minimum temperature yesterday: 15 °F (at 3:53 AM)
Average temperature yesterday: 30 °F

Past Weeks' High & Low Weather Summary

 TemperatureHumidityPressure
High64 °F (Feb 20, 1:53 PM)96% (Feb 28, 10:53 PM)30.43 "Hg (Feb 28, 10:53 PM)
Low10 °F (Feb 23, 6:53 AM)10% (Feb 20, 4:53 PM)29.62 "Hg (Feb 20, 2:53 PM)
Average32 °F61%30.00 "Hg
* Reported Feb 19 1:53 PM — Mar 6 1:53 PM, Santa Fe, Weather by CustomWeather, © 2015

Note: Actual official high and low records may vary slightly from our data, if they occured in-between our weather recording intervals... More about our weather records

Advertising

Santa Fe weather history for previous 24 hours

 ConditionsComfort  
Time TempWeatherWind HumidityBarometerVisibility
1:53 PM
Fri, Mar 6
57 °FSunny.12 mph18%30.21 "Hg10 mi
12:53 PM52 °FSunny.3 mph17%30.26 "Hg10 mi
11:53 AM51 °FSunny.8 mph18%30.29 "Hg10 mi
10:53 AM45 °FSunny.12 mph26%30.34 "Hg10 mi
9:53 AM40 °FSunny.16 mph33%30.36 "Hg10 mi
8:53 AM36 °FSunny.17 mph37%30.39 "Hg10 mi
7:53 AM30 °FSunny.10 mph47%30.39 "Hg10 mi
6:53 AM24 °FSunny.8 mph62%30.38 "Hg10 mi
5:53 AM23 °FClear.8 mph65%30.34 "Hg10 mi
4:53 AM26 °FClear.8 mph57%30.29 "Hg10 mi
3:53 AM26 °FClear.6 mph60%30.29 "Hg10 mi
2:53 AM28 °FClear.6 mph56%30.29 "Hg10 mi
1:53 AM29 °FClear.9 mph54%30.30 "Hg10 mi
12:53 AM30 °FClear.13 mph51%30.31 "Hg10 mi
11:53 PM
Thu, Mar 5
30 °FClear.9 mph51%30.32 "Hg10 mi
10:53 PM29 °FClear.10 mph54%30.35 "Hg10 mi
9:53 PM30 °FClear.10 mph54%30.36 "Hg10 mi
8:53 PM30 °FClear.10 mph51%30.36 "Hg10 mi
7:53 PM32 °FClear.10 mph47%30.37 "Hg10 mi
6:53 PM33 °FClear.9 mph45%30.36 "Hg10 mi
5:53 PM42 °FSunny.8 mph29%30.31 "Hg10 mi
4:53 PM47 °FSunny.6 mph21%30.28 "Hg10 mi
3:53 PM46 °FSunny.3 mph22%30.29 "Hg10 mi
Weather by CustomWeather, © 2015

See weather overviewHow to use our weather pages